WetterOnline ( https://www.wetteronline.de )

Wetter aktuell Neerpelt

Aktuelles Wetter: Kleine-Brogel (64m)

6-stündlich | Neueste Meldungen
Ortszeit Temperatur Wetter
Fr, 12.07. 8:00 14.3° C leichter Regen
Fr, 12.07. 2:00 15.6° C bedeckt
Do, 11.07. 20:00 20.5° C leicht bewölkt
Do, 11.07. 14:00 22.2° C leicht bewölkt
Do, 11.07. 8:00 17.2° C leicht bewölkt
Do, 11.07. 2:00 17.2° C bedeckt
Mi, 10.07. 20:00 22.2° C -
Mi, 10.07. 14:00 24.9° C leicht bewölkt
Ortszeit Temperatur Wetter
Fr, 12.07. 12:00 14.1° C Regen
Fr, 12.07. 11:00 14.1° C Regen
Fr, 12.07. 10:00 14.5° C Regen
Fr, 12.07. 9:00 14.4° C leichter Regen
Fr, 12.07. 8:00 14.3° C leichter Regen
Fr, 12.07. 7:00 14.4° C leichter Regen
Fr, 12.07. 6:00 14.3° C bedeckt
Ortszeit Relative Feuchte Sichtweite
Fr, 12.07. 8:00 98% 6 km
Fr, 12.07. 2:00 78% >70 km
Do, 11.07. 20:00 54% >70 km
Do, 11.07. 14:00 48% 20 km
Do, 11.07. 8:00 73% 20 km
Do, 11.07. 2:00 89% 40 km
Mi, 10.07. 20:00 57% >70 km
Mi, 10.07. 14:00 63% 20 km
Ortszeit Relative Feuchte Sichtweite
Fr, 12.07. 12:00 99% 4.0 km
Fr, 12.07. 11:00 99% 4.0 km
Fr, 12.07. 10:00 99% 4.0 km
Fr, 12.07. 9:00 98% 6 km
Fr, 12.07. 8:00 98% 6 km
Fr, 12.07. 7:00 97% 26 km
Fr, 12.07. 6:00 98% 30 km
Ortszeit Niederschlagsmenge Niederschlagsart
Fr, 12.07. 8:00 4 l/m2 in 12 Std. Regen
Fr, 12.07. 2:00 0.2 l/m2 in 6 Std. Sprühregen, Niederschlag
Do, 11.07. 20:00 0.0 l/m2 in 12 Std. -
Do, 11.07. 14:00 0.0 l/m2 in 6 Std. -
Do, 11.07. 8:00 0.1 l/m2 in 12 Std. -
Do, 11.07. 2:00 0.1 l/m2 in 6 Std. Sprühregen, Niederschlag
Mi, 10.07. 20:00 1 l/m2 in 12 Std. Regen
Mi, 10.07. 14:00 0.0 l/m2 in 6 Std. Regen
Ortszeit Niederschlagsmenge Niederschlagsart
Fr, 12.07. 12:00 keine Meldung -
Fr, 12.07. 11:00 keine Meldung -
Fr, 12.07. 10:00 keine Meldung -
Fr, 12.07. 9:00 keine Meldung -
Fr, 12.07. 8:00 keine Meldung -
Fr, 12.07. 7:00 keine Meldung -
Fr, 12.07. 6:00 keine Meldung -
Ortszeit Stärke Spitze Richtung
km/h Bft. km/h Grad Sektor
Fr, 12.07. 8:00 11 2 22 10° N
Fr, 12.07. 2:00 4 1 14 uml. uml.
Do, 11.07. 20:00 7 2 29 320° NW
Do, 11.07. 14:00 11 2 36 240° SW
Do, 11.07. 8:00 14 3 18 250° W
Do, 11.07. 2:00 4 1 18 uml. uml.
Mi, 10.07. 20:00 11 2 36 260° W
Mi, 10.07. 14:00 22 4 40 250° W
Ortszeit Stärke Spitze Richtung
km/h Bft. km/h Grad Sektor
Fr, 12.07. 12:00 18 3 36 330° NW
Fr, 12.07. 11:00 18 3 36 350° N
Fr, 12.07. 10:00 18 3 29 360° N
Fr, 12.07. 9:00 18 3 29 360° N
Fr, 12.07. 8:00 11 2 22 10° N
Fr, 12.07. 7:00 11 2 22 360° N
Fr, 12.07. 6:00 7 2 14 360° N
Ortszeit Untergrenze Bedeckung Gattung
total tief tief mittel hoch
Fr, 12.07. 8:00 180 m 8/8 8/8 Cu - -
Fr, 12.07. 2:00 1500 m - 8/8 - - -
Do, 11.07. 20:00 6000 m - 3/8 - - -
Do, 11.07. 14:00 1200 m 3/8 2/8 Cu - Ci
Do, 11.07. 8:00 6000 m 2/8 0/8 - - Ci
Do, 11.07. 2:00 1350 m - 8/8 - - -
Mi, 10.07. 20:00 - - - - - -
Mi, 10.07. 14:00 900 m 5/8 4/8 Cu - Ci
Ortszeit Bedeckungsgrad in Achtel und Wolkenuntergrenze
Fr, 12.07. 12:00 6(240m) 8(360m)
Fr, 12.07. 11:00 5(150m) 8(750m)
Fr, 12.07. 10:00 5(120m) 8(1200m)
Fr, 12.07. 9:00 3(210m) 8(1350m)
Fr, 12.07. 8:00 2(180m) 8(1350m)
Fr, 12.07. 7:00 8(1410m)
Fr, 12.07. 6:00 8(1410m)
Ortszeit Luftdruck NN (hPa) Tendenz (hPa in 3 Std.)
Fr, 12.07. 8:00 1012 - 2,3
Fr, 12.07. 2:00 1016 - 1,0
Do, 11.07. 20:00 1017 - 0,5
Do, 11.07. 14:00 1018 - 0,2
Do, 11.07. 8:00 1018 + 0,6
Do, 11.07. 2:00 1017 + 0,3
Mi, 10.07. 20:00 1015 + 0,5
Mi, 10.07. 14:00 1015 - 0,2
Ortszeit Luftdruck NN (hPa) Tendenz (hPa in 3 Std.)
Fr, 12.07. 12:00 1010 - 0,5
Fr, 12.07. 11:00 1010 - 1,9
Fr, 12.07. 10:00 1010 - 1,7
Fr, 12.07. 9:00 1011 - 2,1
Fr, 12.07. 8:00 1012 - 2,3
Fr, 12.07. 7:00 1012 - 2,2
Fr, 12.07. 6:00 1013 - 2,1
Ortszeit Schneehöhe (cm)
Fr, 12.07. 8:00 -
Fr, 12.07. 2:00 -
Do, 11.07. 20:00 -
Do, 11.07. 14:00 -
Do, 11.07. 8:00 -
Do, 11.07. 2:00 -
Mi, 10.07. 20:00 -
Mi, 10.07. 14:00 -
Ortszeit Schneehöhe (cm)
Fr, 12.07. 12:00 -
Fr, 12.07. 11:00 -
Fr, 12.07. 10:00 -
Fr, 12.07. 9:00 -
Fr, 12.07. 8:00 -
Fr, 12.07. 7:00 -
Fr, 12.07. 6:00 -
Link zu dieser Seite / Seite empfehlen

Das Wetter in ...